Location: Aulnoy
(48.8410°N, 3.0967°E)
Time: 16:27:02
(UTC+00:00)

Cosmos 2360 Rocket - Visible Passes

Search period start: 30 September 2023 00:00
Search period end: 10 October 2023 00:00
Orbit: 832 x 846 km, 71.0° (Epoch: 29 September)

Date Brightness Start Highest point End Pass type
(mag) Time Alt. Az. Time Alt. Az. Time Alt. Az.
30 Sep 3.8 01:26:00 10° NNW 01:30:27 30° NE 01:30:27 30° NE visible
30 Sep 3.6 03:09:47 10° NW 03:21:27 - S 03:11:59 24° NW visible
30 Sep 2.9 18:04:17 10° SW 18:09:51 60° WNW 18:15:29 10° NNE visible
30 Sep 4.9 19:51:40 10° WNW 19:55:06 16° NW 19:58:32 10° N visible
01 Oct 4.3 01:10:10 10° NNW 01:12:50 23° N 01:12:50 23° N visible
01 Oct 4.4 02:53:55 10° NW 02:54:29 13° NW 02:54:29 13° NW visible
01 Oct 2.8 17:48:22 10° SW 17:53:58 63° WNW 17:59:38 10° NNE visible
01 Oct 4.8 19:35:36 10° WNW 19:39:09 17° NW 19:42:44 10° N visible
02 Oct 4.5 00:54:20 10° NNW 00:56:07 18° N 00:56:07 18° N visible
02 Oct 4.8 19:19:33 10° WNW 19:23:14 17° NW 19:26:56 10° N visible
03 Oct 4.7 00:38:31 10° NNW 00:39:43 15° N 00:39:43 15° N visible
03 Oct 4.7 19:03:30 10° W 19:07:18 18° NW 19:11:08 10° N visible
04 Oct 4.9 00:22:40 10° NNW 00:23:33 14° N 00:23:33 14° N visible
04 Oct 4.7 18:47:27 10° W 18:51:23 19° NW 18:55:19 10° N visible
05 Oct 5.0 00:06:51 10° N 00:07:29 12° N 00:07:29 12° N visible
05 Oct 4.6 18:31:25 10° W 18:35:27 20° NW 18:39:30 10° N visible
05 Oct 5.0 23:51:02 10° N 23:51:30 12° N 23:51:30 12° N visible
06 Oct 4.6 18:15:23 10° W 18:19:31 20° NW 18:23:42 10° N visible
06 Oct 5.1 23:35:12 10° N 23:35:35 11° N 23:35:35 11° N visible
07 Oct 4.5 17:59:22 10° W 18:03:37 21° NW 18:07:53 10° N visible
07 Oct 5.1 23:19:24 10° N 23:19:43 11° N 23:19:43 11° N visible
08 Oct 4.4 17:43:21 10° W 17:47:42 22° NW 17:52:04 10° N visible
08 Oct 5.1 23:03:35 10° N 23:03:54 11° N 23:03:54 11° N visible
09 Oct 5.1 22:47:45 10° N 22:48:06 11° N 22:48:06 11° N visible
